Flag for U.S.A. Weather past 2 weeks in Fairbanks, Alaska, U.S.A.

Now
46 °F

Clear.


Feels Like: 43 °F
Forecast: 44 / 60 °F
Wind: 6 mph from Northeast

Location: Wainwright U. S. Army Airfield

Current Time: Sep 19, 2014 at 4:08:55 AM

Latest Report: Sep 19, 2014 at 2:56 AM


Visibility: 10 mi

Pressure: 29.09 "Hg

Humidity: 61%

Dew point: 33 °F

Location of FairbanksLocation

Historic Weather in Fairbanks — Graph

°F

Fairbanks temperature yesterday

Maximum temperature yesterday: 70 °F (at 10:55 AM)
Minimum temperature yesterday: 38 °F (at 3:56 AM)
Average temperature yesterday: 55 °F

Past Weeks' High & Low Weather Summary

 TemperatureHumidityPressure
High79 °F (Sep 17, 12:55 PM)93% (Sep 4, 6:55 AM)30.14 "Hg (Sep 4, 6:55 AM)
Low28 °F (Sep 4, 6:55 AM)21% (Sep 17, 12:55 PM)29.03 "Hg (Sep 18, 5:55 PM)
Average52 °F58%29.78 "Hg
* Reported Sep 4 2:56 AM — Sep 19 2:56 AM, Fairbanks, Weather by CustomWeather, © 2014

Note: Actual official high and low records may vary slightly from our data, if they occured in-between our weather recording intervals... More about our weather records

Advertising

Fairbanks weather history for previous 24 hours

 ConditionsComfort  
Time TempWeatherWind HumidityBarometerVisibility
2:56 AM
Sep 19
46 °FClear.6 mph61%29.09 "Hg10 mi
1:56 AM48 °FClear.9 mph56%29.08 "Hg10 mi
12:56 AM48 °FClear.10 mph56%29.07 "Hg10 mi
11:56 PM
Sep 18
50 °FClear.9 mph54%29.06 "Hg10 mi
10:56 PM53 °FClear.8 mph48%29.06 "Hg10 mi
9:56 PM56 °FClear.8 mph44%29.05 "Hg10 mi
8:55 PM59 °FBroken clouds.9 mph42%29.05 "Hg13 mi
7:55 PM63 °FBroken clouds.9 mph34%29.03 "Hg25 mi
6:55 PM66 °FBroken clouds.7 mph30%29.03 "Hg25 mi
5:55 PM66 °FBroken clouds.5 mph30%29.03 "Hg25 mi
4:55 PM66 °FBroken clouds.5 mph30%29.04 "Hg25 mi
3:55 PM64 °FBroken clouds.5 mph32%29.06 "Hg25 mi
2:55 PM64 °FBroken clouds.7 mph32%29.09 "Hg25 mi
1:55 PM63 °FBroken clouds.8 mph34%29.10 "Hg25 mi
12:55 PM63 °FScattered clouds.8 mph34%29.11 "Hg25 mi
11:55 AM59 °FScattered clouds.10 mph39%29.13 "Hg25 mi
10:55 AM70 °FPassing clouds.9 mph27%29.15 "Hg25 mi
9:55 AM46 °FPassing clouds.9 mph62%29.16 "Hg25 mi
6:55 AM39 °FPassing clouds.10 mph70%29.19 "Hg13 mi
4:56 AM42 °FClear.10 mph68%29.19 "Hg10 mi
Weather by CustomWeather, © 2014

See weather overviewHow to use our weather pages